Regional Weather Roundup
Issued by NWS Wakefield, VA

Home | Current Version | Previous Version | Text Only | Print | Product List | Glossary On
Versions: 1 2 3 4 5 6 7 8 9 10 11 12 13 14 15 16 17 18 19 20 21 22 23 24 25 26 27
000
ASUS41 KAKQ 010115
RWRAKQ

REGIONAL WEATHER ROUNDUP
NATIONAL WEATHER SERVICE WAKEFIELD VA
900 PM EDT TUE MAY 31 2016

Note: "fair" indicates few or no clouds below 12,000 feet with no
significant weather and/or obstructions to visibility. * = Denotes
station may not report precipitation (e.g., rain,snow,etc.),
thunder or fog.

VAZ042-051-052>054-056-010200-
NORTHERN VIRGINIA

CITY           SKY/WX    TMP DP  RH WIND       PRES   REMARKS
WASH NATIONAL  MOCLDY    76  68  76 S5        29.97R
DULLES         FAIR      77  57  50 NE7       29.97R
FORT BELVOIR   FAIR      74  68  81 CALM      29.97R
QUANTICO       FAIR      77  70  79 CALM      29.97R
FREDERICKSBRG* FAIR      76  70  82 CALM      29.96R
STAFFORD*        N/A     71  68  91 CALM      30.01R
WARRENTON      FAIR      71  63  77 CALM      29.97R
CULPEPER*      FAIR      71  69  90 CALM      29.98R
MANASSAS*      PTCLDY    75  70  83 CALM      29.97R
LEESBURG*      FAIR      77  64  65 CALM      29.99R
WINCHESTER     FAIR      70  61  73 CALM      29.99R
FRONT ROYAL*   FAIR      70  63  78 CALM      29.98R
LURAY*         FAIR      70  63  78 N5        30.00R
$$

VAZ048-049-060>072-079>083-010200-
CENTRAL AND SOUTH CENTRAL VIRGINIA

CITY           SKY/WX    TMP DP  RH WIND       PRES   REMARKS
RICHMOND       FAIR      75  68  78 E5        29.97R
CHESTERFIELD*    N/A    N/A N/A N/A MISG        N/A
PETERSBURG*    FAIR      72  72 100 CALM      29.98R
HANOVER        FAIR      72  69  90 CALM      29.98R
TAPPAHANNOCK*  FAIR      73  73  98 CALM      29.98R
QUINTON*       FAIR      73  70  90 CALM      29.96R
CHARLOTTSVILLE FAIR      78  66  66 SE3       29.98R
GORDONSVILLE*  FAIR      73  69  88 CALM      29.98R
ORANGE*        FAIR      73  72  94 CALM      30.00R
LOUISA*        FAIR      73  72  94 CALM      29.97R
BUMPASS*       FAIR      72  68  88 CALM      29.97S
FARMVILLE*     FAIR      75  71  88 CALM      29.96R
CREWE*         FAIR      72  72 100 CALM      29.97R
FORT PICKETT*  NOT AVBL
CHASE CITY*    FAIR      74  69  83 CALM      29.97R
CLARKSVILLE*   FAIR      75  70  83 CALM      29.96S
SOUTH HILL*    FAIR      75  70  85 CALM      30.02R
LAWRENCEVILLE* FAIR      73  70  90 CALM      29.97R
EMPORIA*         N/A     72  68  88 CALM      29.98R
$$

VAZ088>098-010200-
SOUTHEAST VIRGINIA

CITY           SKY/WX    TMP DP  RH WIND       PRES   REMARKS
NORFOLK        FAIR      72  67  84 E5        29.97R
VIRGINIA BEACH MOCLDY    74  67  78 E5        29.97R
NORFOLK NAVAL  FAIR      72  68  87 SE7       29.99R
WEST POINT*    FAIR      72  67  84 E3        29.98R
SALUDA*        FAIR      71  70  96 CALM      29.97R
NEWPORT NEWS   FAIR      72  68  87 E5        29.97R
LANGLEY AFB    FAIR      72  68  89 SE6       29.97R
FORT EUSTIS    FAIR      76  71  86 E5        29.95R
WILLIAMSBURG*  FAIR      73  70  88 CALM      29.98R
HR EXEC AP*    FAIR      72  66  83 SE6       29.99R
FRANKLIN*      FAIR      74  67  77 E3        29.97R
US460-WAKEFLD  FAIR      73  68  84 CALM      29.97R
$$

VAZ020-022-025-037-045-010200-
WEST CENTRAL AND SOUTHWEST VIRGINIA

CITY           SKY/WX    TMP DP  RH WIND       PRES   REMARKS
STAUNTON*      FAIR      71  60  67 CALM      30.03R
WAYNESBORO*    FAIR      74  61  64 SE5       30.02R
HOT SPRINGS VA FAIR      68  55  63 E5        30.12R
LYNCHBURG      FAIR      73  67  81 SE3       30.01R
DANVILLE       FAIR      72  68  87 E3        29.98R
SOUTH BOSTON*  FAIR      74  69  85 CALM      29.97R
MARTINSVILLE   FAIR      69  66  89 CALM      30.01R
ROANOKE        FAIR      78  65  63 SE6       30.01R
BLACKSBURG     FAIR      73  63  71 E5        30.07R
DUBLIN*        CLOUDY    73  65  77 CALM      30.06R
MARION*        CLOUDY    66  64  96 CALM      30.09R FOG
HILLSVILLE*    FAIR      67  63  86 SW5       30.07R
RICHLANDS*     CLOUDY    69  53  55 SE9G16    30.06S
WISE*          FAIR      73  52  46 CALM      30.07R
ABINGDON*      FAIR      76  61  59 E9        30.03R
$$

MDZ021>025-VAZ099-100-010200-
SOUTHERN MARYLAND AND THE DELMARVA PENINSULA

CITY           SKY/WX    TMP DP  RH WIND       PRES   REMARKS
PATUXENT RIVER PTCLDY    75  66  73 CALM      29.96R
BAY BRIDGE APT CLEAR     75  70  83 CALM      29.96R
LEONARDTOWN    CLEAR     70  66  88 CALM      29.99R
DOVER          CLEAR     75  73  94 S5        29.96R
GEORGETOWN     CLOUDY    74  70  87 S6        29.98R
EASTON         CLEAR     77  73  88 CALM      30.00R
CAMBRIDGE        N/A     73  70  88 CALM      29.97R
SALISBURY      CLOUDY    72  70  93 CALM      29.97R
OCEAN CITY     CLOUDY    70  66  87 S3        29.98R
WALLOPS ISLAND FAIR      70  67  90 S5        29.99R
ACCOMACK*      FAIR      70  66  88 CALM      29.98S
$$

NCZ012>017-030>032-010200-
NORTH CENTRAL AND EASTERN NORTH CAROLINA

CITY           SKY/WX    TMP DP  RH WIND       PRES   REMARKS
ROANOKE RAPIDS FAIR      75  68  78 CALM      29.96R
RALEIGH        MOCLDY    76  69  79 CALM      29.95R
ELIZABETH CITY PTCLDY    71  67  87 E7        29.97R
AHOSKIE*       MOCLDY    74  70  87 CALM      29.97R
EDENTON*       PTCLDY    73  71  93 E8        29.98R
CURRITUCK*     PTCLDY    71  68  89 NE3       29.99R
KILL DEVIL HLS PTCLDY    69  66  91 NE3       29.95F
MANTEO         PTCLDY    69  69  98 E12       29.96F
CAPE HATTERAS  CLOUDY    73  70  90 NE7       29.95R
TARBORO*       FAIR      75  71  87 E5        29.97R
GOLDSBORO      NOT AVBL
WASHINGTON     CLOUDY    72  69  92 NE5       29.95R
GREENVILLE     MOCLDY    73  72  94 E5        29.98R
NEW BERN       CLOUDY    73  71  93 E7        29.94S
WILMINGTON     CLOUDY    73  71  93 NE9       29.89S
$$

VAZ048-010200-
ELSEWHERE

CITY           SKY/WX    TMP DP  RH WIND       PRES   REMARKS
HARRISBURG PA  MOCLDY    77  64  64 CALM      29.95R
BALTIMORE      PTCLDY    74  65  73 CALM      29.96R
ANNAPOLIS      CLEAR     74  70  87 CALM      29.96R
ANDREWS AFB    FAIR      74  68  80 S3        29.97R
PHILADELPHIA   CLOUDY    84  51  31 W5        29.95R
HENDERSON NC   PTCLDY    73  67  80 CALM      29.97R
GREENSBORO     PTCLDY    77  64  64 E3        29.97R
ROCKY MOUNT    CLOUDY    75  70  84 E5        29.95R
$$

VAZ100-010200-
MARINE

STATION/POSITION TIME  TEMP    WIND        PRES    WAVE   SWELL
                       AIR SEA DIR/SP/G            HT/PER HT/PER
                 (UTC) (F)     (DEG/KT/KT) (MB)    (FT/S) (FT/S)
BRANDYWINE LGT   0000                      1014.4
CAPE MAY NJ      0000                      1014.4
LEWES DE         0000                      1014.5
15NM E FENWICK I 0050   69 68              1015.2R   4/ 8
OCEAN-CITY-INLET 0000                      1015.3
WACHAPREAGUE VA  0000                      1014.7
THOMAS POINT MD  0100   76 71  210/  6/  6 1016.0R
GOOSES REEF MD   0100   76 75  190/  4/  4 1015.7R   0
COVE POINT MD    0000                      1014.8
SOLOMONS ISLAND  0000   76 72                N/A
BISHOPS HEAD MD  0000                      1014.7
PINEY POINT MD   0024          160/  5/  5   N/A
POTOMAC MD       0100   74 74  170/  8/ 10 1013.9R
CAMBRIDGE MD     0000                      1013.5
LEWISETTA VA     0000                      1014.1
RAPPAHANNOCK LGT 0000                      1015.3R
STINGRAY PT      0100   74 74  170/  6/  8 1015.4R   0
YORK RVR RNG VA  0000                      1014.1
YORKTOWN VA      0000                      1014.2
JAMESTOWN VA     0100   76 77   80/  4/  4   N/A     0
DOMINION TERM VA 0000                      1014.6
KIPTOPEKE VA     0000      70                N/A
CHES BAY BRIDGE  0000                      1014.5
CAPE HENRY VA    0006   71                   N/A
CHESAPEAKE LGHT  0000   70      90/  4/  4 1015.5R
WILLOUBY STN VA  0000                      1015.4
CAPE HENRY BUOY  0012      72                N/A     3/ 8
1ST LANDING BUOY 0100   70 68  120/  6/  6 1015.1R   1/ 4
CAPE CHARLES BUO 0026      71                N/A     3/ 8   3/ 8
OFFSHORE WE BUOY 0021      72                N/A     4/ 8   3/ 8
64NM E OF VA BCH 0050   69 66   70/  6/  8 1014.7R   4/ 8   3/ 8
DUCK PIER NC     0000                      1014.1
44056 DUCK FRF   0011      68                N/A     3/ 8
OREGON INLET NC  0000                      1014.3
HATTERAS NC      0000                      1013.4
DIAMOND SHLS NC  0050   74 80  220/ 12/ 14 1013.9R   3/ 8   3/ 8
CAPE LOOKOUT NC  0100   74      50/  7/  7 1013.1R
$$




USA.gov is the U.S. government's official web portal to all federal, state and local government web resources and services.